Location: Home
(42.5358°N, 72.7383°W)
Time: 11:42:35
(UTC-05:00)

Explorer 7 - Pass Details

Date: 05 December 2021
Orbit: 483 x 674 km, 50.3° (Epoch: 21 January)

Event Time Altitude Azimuth Distance (km) Brightness Sun altitude
Exits shadow 03:32:40 11° 95° (E) 1,841 10.2 -38.4°
Drops below altitude 10° 03:32:53 10° 93° (E) 1,890 10.2 -38.4°
Sets 03:35:44 0° 72° (ENE) 2,749 11.3 -37.8°
